[[{"header":{"parameterUnit":"m.s-1","parameterCategory":1,"la1":30.2991,"la2":30.254,"lo1":-89.0895,"lo2":-89.0444,"dy":0.0017,"dx":0.0017,"nx":28,"ny":28,"refTime":"2023-11-14T03:00:00:Z","depth":0,"parameterNumber":2,"parameterNumberName":"U-component_of_WINDS"},"data":[0,0,0,0,0,0,0,0,0,0,0,0,0,0,0,0,0,0,0,0,0,0,0,0,0,0,0,0,0,0,0,0,0,0,0,0,0,0,0,0,0,0,0,0,0,0,0,0,0,0,0,0,0,0,0,0,0,0,-5.2555,-5.2556,0,-5.2628,-5.2628,-5.2629,-5.2506,-5.2502,-5.2498,-5.2494,-5.2568,-5.2573,-5.2579,0,0,0,0,0,0,0,0,0,0,0,0,0,-5.2311,-5.2316,-5.2555,-5.2556,-5.2557,-5.2628,-5.2628,-5.2629,-5.2507,-5.2502,-5.2497,-5.2492,-5.2566,-5.2573,-5.258,0,0,0,0,0,0,0,0,0,0,0,0,0,-5.2403,-5.2317,-5.2555,-5.2505,-5.2501,-5.2627,-5.2629,-5.263,-5.2508,-5.2502,-5.2496,-5.249,-5.2563,-5.2572,-5.2581,-5.276,0,0,-5.2607,-5.2611,0,0,0,0,0,0,0,0,-5.2398,-5.2413,-5.2511,-5.2508,-5.2504,-5.2552,-5.2569,-5.2673,-5.251,-5.2505,-5.2494,-5.2487,-5.2567,-5.2575,-5.2603,-5.2763,-5.2766,-5.2608,-5.2613,-5.2617,-5.262,0,0,0,0,0,0,0,-5.2392,-5.2409,-5.2584,-5.2513,-5.2509,-5.2478,-5.2484,-5.2588,-5.2571,-5.2505,-5.2497,-5.2507,-5.2564,-5.2595,-5.2603,-5.2767,-5.2608,-5.2616,-5.2621,-5.2625,-5.3079,-5.3086,0,0,0,0,0,0,-5.2392,-5.2404,-5.2582,-5.2586,-5.2435,-5.2488,-5.2495,-5.2543,-5.2569,-5.2567,-5.2512,-5.2501,-5.2583,-5.2593,-5.2606,-5.2818,-5.2617,-5.2625,-5.263,-5.3072,-5.3081,-5.3088,0,0,0,0,0,0,-5.2387,-5.2409,-5.2579,-5.2493,-5.2512,-5.2498,-5.2554,-5.2547,-5.2578,-5.2574,-5.257,-5.2546,-5.2578,-5.2593,-5.2723,-5.2819,-5.2629,-5.2637,-5.3064,-5.3075,-5.3084,-5.3245,0,0,0,0,0,0,-5.2381,-5.2408,-5.2476,-5.2495,-5.2517,-5.2695,-5.2559,-5.2553,-5.2593,-5.2579,-5.2605,-5.2604,-5.2574,-5.271,-5.2731,-5.2828,-5.2644,-5.3056,-5.3069,-5.3081,-5.3231,-5.3259,-5.3283,0,0,0,0,0,-5.2372,-5.2518,-5.248,-5.2502,-5.2602,-5.2701,-5.2713,-5.2677,-5.2601,-5.267,-5.2668,-5.2603,-5.2805,-5.2724,-5.2747,-5.2848,-5.305,-5.3065,-5.308,-5.3219,-5.3253,-5.3283,0,0,0,0,0,0,-5.251,-5.252,-5.2478,-5.2634,-5.2668,-5.268,-5.2765,-5.2715,-5.277,-5.2755,-5.2707,-5.2714,-5.2853,-5.2863,-5.2773,-5.3023,-5.2914,-5.2935,-5.3012,-5.3045,-5.3071,-5.3066,-5.2651,0,0,0,0,0,-5.2559,-5.2639,-5.2642,-5.278,-5.2799,-5.278,-5.2821,-5.279,-5.2823,-5.2837,-5.2844,-5.2878,-5.2949,-5.2997,-5.3062,-5.323,-5.3235,-5.3311,-5.3337,-5.3359,-5.3378,-5.3469,-5.3503,-5.3139,-5.3138,-5.3138,0,0,-5.266,-5.2675,-5.2728,-5.2808,-5.283,-5.2914,-5.2792,-5.2886,-5.2948,-5.2851,-5.2974,-5.298,-5.3015,-5.3166,-5.3232,-5.3178,-5.3479,-5.3378,-5.3396,-5.3403,-5.3488,-5.3523,-5.3554,-5.3149,-5.3147,-5.3145,0,0,-5.2888,-5.2907,-5.3024,-5.3049,-5.3085,-5.3071,-5.31,-5.312,-5.3121,-5.3243,-5.3172,-5.3245,-5.3368,-5.3396,-5.3427,-5.3665,-5.3609,-5.3688,-5.3826,-5.3916,-5.3944,-5.397,-5.4056,-5.4088,-5.3706,-5.3707,-5.3707,0,-5.301,-5.3134,-5.3091,-5.319,-5.3228,-5.3143,-5.3262,-5.3288,-5.3343,-5.3371,-5.3309,-5.3463,-5.348,-5.3636,-5.3695,-5.3721,-5.3753,-5.3686,-5.3943,-5.3968,-5.3991,-5.4074,-5.4106,-5.3716,-5.3715,-5.3714,-5.3713,0,-5.3282,-5.3369,-5.3459,-5.3516,-5.3563,-5.3671,-5.3645,-5.3698,-5.3662,-5.3655,-5.3782,-5.3799,-5.3867,-5.3901,-5.3867,-5.4054,-5.4019,-5.3951,-5.3842,-5.4037,-5.4113,-5.4144,-5.373,-5.3726,-5.3724,-5.3721,0,0,-5.3601,-5.3632,-5.3666,-5.3691,-5.3724,-5.379,-5.3894,-5.3961,-5.4008,-5.4048,-5.4136,-5.4242,-5.4179,-5.4214,-5.4182,-5.4261,-5.4451,-5.4183,-5.4183,-5.4234,-5.4659,-5.4711,-5.4748,-5.4412,-5.4418,-5.4422,-5.4656,0,-5.3829,-5.401,-5.3975,-5.4152,-5.4232,-5.4153,-5.4244,-5.4274,-5.427,-5.4337,-5.4331,-5.4409,-5.432,-5.434,-5.4414,-5.4412,-5.4536,-5.4394,-5.4494,-5.4498,-5.449,-5.4788,-5.4844,-5.5063,-5.4686,-5.4691,-5.4694,0,-5.412,-5.4172,-5.4358,-5.4379,-5.4411,-5.4494,-5.4552,-5.4617,-5.465,-5.4641,-5.4681,-5.4634,-5.4738,-5.4626,-5.4769,-5.4674,-5.4712,-5.4717,-5.4724,-5.4734,-5.461,-5.4808,-5.5132,-5.5166,-5.4741,-5.4737,-5.4734,0,-5.4336,-5.4453,-5.4579,-5.4603,-5.463,-5.469,-5.4704,-5.473,-5.4773,-5.4823,-5.485,-5.4913,-5.4947,-5.4996,-5.4968,-5.4888,-5.5117,-5.5002,-5.5113,-5.5115,-5.5167,-5.5165,-5.5505,-5.5188,-5.5188,-5.5187,-5.5186,0,-5.4596,-5.4714,-5.4677,-5.4755,-5.4884,-5.4841,-5.497,-5.4974,-5.4998,-5.5076,-5.501,-5.5084,-5.5041,-5.5112,-5.509,-5.5212,-5.5228,-5.5224,-5.5218,-5.5232,-5.5233,-5.5258,-5.5243,-5.5196,-5.5194,-5.5192,-5.5191,0,-5.4861,-5.4841,-5.4974,-5.4988,-5.4995,-5.5089,-5.5102,-5.5175,-5.5165,-5.5264,-5.5285,-5.527,-5.535,-5.5326,-5.5411,-5.5397,-5.5553,-5.5525,-5.5543,-5.5537,-5.5651,-5.5642,-5.6021,-5.6069,-5.572,-5.5723,-5.5726,0,-5.5029,-5.5118,-5.5142,-5.519,-5.5209,-5.5286,-5.5329,-5.529,-5.5338,-5.5381,-5.5449,-5.5523,-5.5581,-5.5712,-5.5709,-5.5775,-5.575,-5.5878,-5.5759,-5.5771,-5.5754,-5.575,-5.5759,-5.5903,-5.5907,-5.591,-5.5912,0,-5.5331,-5.5317,-5.5382,-5.5445,-5.5498,-5.5545,-5.5586,-5.5628,-5.5592,-5.5649,-5.573,-5.5775,-5.5863,-5.5938,-5.5997,-5.6011,-5.5957,-5.595,-5.5979,-5.5996,-5.6003,-5.6003,-5.561,-5.5942,-5.5939,-5.5937,-5.5935,-5.5934,-5.5554,-5.5629,-5.5659,-5.5734,-5.576,-5.58,-5.587,-5.5869,-5.5936,-5.6005,-5.5977,-5.6072,-5.6101,-5.6176,-5.6198,-5.6271,-5.6221,-5.6264,-5.6275,-5.6287,-5.6303,-5.599,-5.6281,-5.628,-5.6279,-5.6278,-5.6278,0,-5.5854,-5.5869,-5.5938,-5.5998,-5.6057,-5.6,-5.6042,-5.6096,-5.6179,-5.6212,-5.627,-5.6364,-5.6436,-5.6439,-5.6506,-5.6564,-5.6541,-5.6583,-5.658,-5.6584,-5.6342,-5.631,-5.6601,-5.6601,-5.6601,-5.6601,-5.6601,-5.6601,-5.6018,-5.6143,-5.6132,-5.627,-5.6283,-5.6375,-5.6404,-5.6441,-5.6467,-5.6575,-5.6635,-5.6636,-5.6657,-5.6725,-5.6789,-5.6788,-5.6817,-5.6869,-5.6859,-5.6633,-5.6601,-5.657,-5.6541,-5.6875,-5.6875,-5.7095,-5.7097,-5.7099]},{"header":{"parameterUnit":"m.s-1","parameterCategory":1,"la1":30.2991,"la2":30.254,"lo1":-89.0895,"lo2":-89.0444,"dy":0.0017,"dx":0.0017,"nx":28,"ny":28,"refTime":"2023-11-14T03:00:00:Z","depth":0,"parameterNumber":3,"parameterNumberName":"V-component_of_WINDS"},"data":[0,0,0,0,0,0,0,0,0,0,0,0,0,0,0,0,0,0,0,0,0,0,0,0,0,0,0,0,0,0,0,0,0,0,0,0,0,0,0,0,0,0,0,0,0,0,0,0,0,0,0,0,0,0,0,0,0,0,-3.869,-3.869,0,-3.8691,-3.8691,-3.8691,-3.8623,-3.8621,-3.862,-3.8618,-3.862,-3.8621,-3.8623,0,0,0,0,0,0,0,0,0,0,0,0,0,-3.8629,-3.863,-3.869,-3.869,-3.869,-3.8691,-3.8691,-3.8691,-3.8623,-3.8621,-3.8619,-3.8617,-3.8619,-3.8621,-3.8623,0,0,0,0,0,0,0,0,0,0,0,0,0,-3.8645,-3.8631,-3.869,-3.8656,-3.8653,-3.8691,-3.8691,-3.8691,-3.8624,-3.8621,-3.8619,-3.8616,-3.8618,-3.8621,-3.8623,-3.8693,0,0,-3.8631,-3.8632,0,0,0,0,0,0,0,0,-3.8644,-3.8647,-3.8661,-3.8659,-3.8655,-3.8654,-3.867,-3.8691,-3.8625,-3.8635,-3.8618,-3.8615,-3.8633,-3.8634,-3.8641,-3.8693,-3.8693,-3.8632,-3.8633,-3.8634,-3.8635,0,0,0,0,0,0,0,-3.8643,-3.8647,-3.869,-3.8661,-3.8658,-3.8641,-3.864,-3.8673,-3.8649,-3.8634,-3.8629,-3.863,-3.8631,-3.8638,-3.864,-3.8693,-3.8631,-3.8634,-3.8635,-3.8636,-3.8801,-3.8803,0,0,0,0,0,0,-3.8647,-3.8646,-3.869,-3.869,-3.8643,-3.8644,-3.8643,-3.8657,-3.8649,-3.8645,-3.8632,-3.8627,-3.8635,-3.8637,-3.864,-3.8719,-3.8634,-3.8637,-3.8638,-3.8798,-3.8801,-3.8804,0,0,0,0,0,0,-3.8646,-3.8651,-3.869,-3.8667,-3.867,-3.8648,-3.8664,-3.8659,-3.8665,-3.8647,-3.8643,-3.8644,-3.8633,-3.8636,-3.868,-3.8718,-3.8638,-3.864,-3.8795,-3.8799,-3.8803,-3.888,0,0,0,0,0,0,-3.8644,-3.8651,-3.8678,-3.8668,-3.8672,-3.873,-3.8666,-3.866,-3.867,-3.8663,-3.8657,-3.8654,-3.8631,-3.8676,-3.8682,-3.872,-3.8642,-3.8791,-3.8796,-3.8801,-3.8874,-3.8886,-3.8897,0,0,0,0,0,-3.8642,-3.87,-3.8679,-3.8685,-3.8705,-3.8733,-3.8735,-3.8708,-3.8674,-3.87,-3.8688,-3.8654,-3.8713,-3.8681,-3.8688,-3.8727,-3.8788,-3.8795,-3.8801,-3.8868,-3.8883,-3.8896,0,0,0,0,0,0,-3.8716,-3.8698,-3.8675,-3.8732,-3.8734,-3.8721,-3.8753,-3.8725,-3.8737,-3.873,-3.8696,-3.8695,-3.8744,-3.874,-3.8705,-3.8793,-3.8745,-3.8753,-3.8794,-3.8808,-3.8819,-3.8819,-3.8644,0,0,0,0,0,-3.8738,-3.8763,-3.8746,-3.8797,-3.8799,-3.8776,-3.8788,-3.8766,-3.8767,-3.8768,-3.876,-3.8762,-3.8781,-3.8794,-3.8811,-3.8873,-3.887,-3.8903,-3.8914,-3.8924,-3.8931,-3.8961,-3.8975,-3.8825,-3.8825,-3.8825,0,0,-3.8786,-3.8779,-3.8797,-3.8812,-3.8811,-3.8836,-3.8778,-3.8808,-3.8826,-3.8773,-3.8813,-3.8807,-3.8807,-3.8859,-3.8882,-3.8858,-3.8972,-3.8932,-3.894,-3.8942,-3.8969,-3.8984,-3.8996,-3.8829,-3.8829,-3.8828,0,0,-3.8885,-3.8883,-3.8924,-3.8924,-3.8923,-3.8907,-3.8917,-3.8909,-3.8902,-3.8941,-3.8902,-3.8923,-3.8957,-3.8958,-3.8963,-3.9061,-3.903,-3.9067,-3.9127,-3.9158,-3.9169,-3.918,-3.9213,-3.9226,-3.9075,-3.9075,-3.9075,0,-3.8944,-3.898,-3.8949,-3.8981,-3.8988,-3.894,-3.8982,-3.8983,-3.8989,-3.8995,-3.8967,-3.9007,-3.9004,-3.9055,-3.9079,-3.9085,-3.9095,-3.9068,-3.917,-3.918,-3.9189,-3.9221,-3.9234,-3.9079,-3.9079,-3.9078,-3.9078,0,-3.9052,-3.9077,-3.9111,-3.9116,-3.9127,-3.9163,-3.9137,-3.9152,-3.913,-3.9116,-3.9156,-3.9151,-3.9165,-3.9176,-3.9155,-3.9224,-3.9208,-3.9176,-3.9127,-3.9209,-3.9237,-3.9249,-3.9086,-3.9084,-3.9083,-3.9082,0,0,-3.9198,-3.9183,-3.9196,-3.9197,-3.9192,-3.9211,-3.9245,-3.9258,-3.927,-3.9275,-3.9302,-3.9331,-3.93,-3.9306,-3.9285,-3.9312,-3.9387,-3.9276,-3.9275,-3.9295,-3.9461,-3.9484,-3.9499,-3.9366,-3.9369,-3.937,-3.946,0,-3.9292,-3.9348,-3.9321,-3.938,-3.9403,-3.9357,-3.9386,-3.9386,-3.9374,-3.9391,-3.9378,-3.9399,-3.9358,-3.9361,-3.9385,-3.9373,-3.942,-3.9366,-3.939,-3.9392,-3.9391,-3.9514,-3.954,-3.9625,-3.9472,-3.9474,-3.9475,0,-3.941,-3.9418,-3.948,-3.9469,-3.9477,-3.9504,-3.9512,-3.9529,-3.9528,-3.9517,-3.9523,-3.9495,-3.9526,-3.9478,-3.9521,-3.9485,-3.9493,-3.9488,-3.9491,-3.9491,-3.9438,-3.9517,-3.9652,-3.9664,-3.9493,-3.9491,-3.949,0,-3.9509,-3.9535,-3.9575,-3.9577,-3.9565,-3.9585,-3.9581,-3.9577,-3.9586,-3.9593,-3.9598,-3.961,-3.9616,-3.9626,-3.9601,-3.9568,-3.9647,-3.9597,-3.9638,-3.9639,-3.9656,-3.9655,-3.9793,-3.9664,-3.9663,-3.9663,-3.9663,0,-3.9617,-3.9656,-3.9618,-3.9643,-3.9685,-3.9652,-3.9695,-3.9686,-3.9682,-3.9704,-3.9666,-3.9687,-3.9653,-3.9671,-3.9652,-3.9689,-3.9693,-3.9685,-3.9679,-3.9687,-3.9688,-3.9692,-3.9685,-3.9667,-3.9666,-3.9665,-3.9665,0,-3.9734,-3.971,-3.975,-3.9735,-3.9732,-3.9764,-3.9751,-3.9772,-3.9757,-3.9785,-3.979,-3.9766,-3.9785,-3.9761,-3.9778,-3.9765,-3.9816,-3.9802,-3.9816,-3.9811,-3.9854,-3.985,-3.9998,-4.0015,-3.9876,-3.9877,-3.9878,0,-3.9804,-3.9832,-3.9819,-3.9831,-3.9828,-3.9847,-3.9856,-3.9825,-3.9835,-3.9834,-3.9856,-3.9871,-3.9881,-3.9913,-3.9898,-3.991,-3.9895,-3.9946,-3.9897,-3.9904,-3.9894,-3.9892,-3.9895,-3.9956,-3.9958,-3.9959,-3.996,0,-3.9929,-3.9916,-3.9929,-3.9938,-3.9948,-3.9954,-3.9957,-3.9968,-3.9936,-3.9949,-3.9967,-3.9975,-3.9991,-4.0006,-4.0014,-4.001,-3.998,-3.9976,-3.9986,-3.9994,-4.0001,-3.9996,-3.9842,-3.9972,-3.9971,-3.997,-3.997,-3.9969,-4.0024,-4.0046,-4.004,-4.0056,-4.0054,-4.0057,-4.0076,-4.0063,-4.0077,-4.0087,-4.0068,-4.009,-4.0087,-4.0094,-4.0093,-4.011,-4.0088,-4.0103,-4.0106,-4.011,-4.0116,-3.9999,-4.0112,-4.0111,-4.0111,-4.0111,-4.011,0,-4.0147,-4.014,-4.0154,-4.0159,-4.017,-4.014,-4.0141,-4.0153,-4.0173,-4.0172,-4.0182,-4.0202,-4.0216,-4.0201,-4.0213,-4.0229,-4.0215,-4.0233,-4.0231,-4.023,-4.0136,-4.0125,-4.0244,-4.0244,-4.0244,-4.0244,-4.0244,-4.0244,-4.0212,-4.0247,-4.0233,-4.0267,-4.026,-4.0281,-4.0284,-4.0287,-4.0285,-4.0309,-4.032,-4.031,-4.0303,-4.0313,-4.0325,-4.032,-4.0325,-4.0348,-4.0338,-4.025,-4.0237,-4.0225,-4.0214,-4.0349,-4.035,-4.0431,-4.0431,-4.0432]}]]